If you wish to contribute or participate in the discussions about articles you are invited to join SKYbrary as a registered user

 Actions

Asturias

From SKYbrary Wiki

LEAS
Airport
ICAO: LEAS
Summary
Name Asturias
Region Europe
Territory Spain ES.gif
Location Asturias, Spain
Serving
Coordinates 43° 33' 34.4167", -6° 1' 51.663"
Runways
Designator Length Width Surface ROPS
11/29 2200 m7,217.848 ft 45 m147.638 ft ASP yes/yes


METAR
Observation LEAS 230130Z AUTO 24006KT 5000 2300W BR NSC 12/07 Q1028
Station Asturias / Aviles
Date/Time 23 January 2018 01:30:00
Wind direction 240°
Wind speed 06 kts
Lowest cloud amount nil significant cloud
Temperature 12°C
Dew point 7°C
Humidity 71%
QNH 1028 hPa
Weather condition n/a

BS
Tag(s) Bird Strike
WX
Tag(s) Fog

Asturias Airport

ICAO: LEAS IATA: OVD

Description

International airport serving Asturias in northern spain.

Climatology

Temperate Marine climate/Oceanic climate (Köppen climate classification Cfb). Moderately cool summer and comparatively warm winter with a temperature range of only 14°C287.15 K
57.2 °F
516.87 °R
. Prevailing south-westerly winds from the Atlantic Ocean.

Maps

Terrain

Loading map...

Airport Layout

Loading map...


Accidents & Serious Incidents at or in vicinity of LEAS

None on SKYbrary